Time,TemperatureF,DewpointF,PressureIn,WindDirection,WindDirectionDegrees,WindSpeedMPH,WindSpeedGustMPH,Humidity,HourlyPrecipIn,Conditions,Clouds,dailyrainin,SolarRadiationWatts/m^2,SoftwareType,DateUTC
2013-09-13 00:00:00,69.4,60.0,30.08,NE,38,3.0,11.0,72,0.00,,---,0.58,0.00,VWS V14.01,2013-09-13 05:00:00,
2013-09-13 00:02:00,69.3,59.9,30.08,ENE,61,2.0,6.0,72,0.00,,---,0.00,0.00,VWS V14.01,2013-09-13 05:02:00,
2013-09-13 00:07:00,69.3,59.9,30.08,ENE,71,4.0,7.0,72,0.00,,---,0.00,0.00,VWS V14.01,2013-09-13 05:07:00,
2013-09-13 00:12:00,69.1,59.3,30.09,ENE,63,3.0,7.0,71,0.00,,---,0.00,0.00,VWS V14.01,2013-09-13 05:12:00,
2013-09-13 00:17:00,69.1,59.7,30.09,NE,44,5.0,7.0,72,0.00,,---,0.00,0.00,VWS V14.01,2013-09-13 05:17:00,
2013-09-13 00:22:00,68.9,59.5,30.09,ENE,68,3.0,7.0,72,0.00,,---,0.00,0.00,VWS V14.01,2013-09-13 05:22:00,
2013-09-13 00:27:00,68.8,59.4,30.09,ENE,66,4.0,7.0,72,0.00,,---,0.00,0.00,VWS V14.01,2013-09-13 05:27:00,
2013-09-13 00:30:00,68.8,59.4,30.09,ENE,74,6.0,7.0,72,0.00,,---,0.00,0.00,VWS V14.01,2013-09-13 05:30:00,
2013-09-13 00:32:00,68.8,59.8,30.08,ENE,63,7.0,8.0,73,0.00,,---,0.00,0.00,VWS V14.01,2013-09-13 05:32:00,
2013-09-13 00:37:00,68.6,59.2,30.08,ENE,69,5.0,8.0,72,0.00,,---,0.00,0.00,VWS V14.01,2013-09-13 05:37:00,
2013-09-13 00:42:00,68.4,59.0,30.08,NE,55,7.0,10.0,72,0.00,,---,0.00,0.00,VWS V14.01,2013-09-13 05:42:00,
2013-09-13 00:47:00,68.4,59.0,30.08,NE,42,2.0,10.0,72,0.00,,---,0.00,0.00,VWS V14.01,2013-09-13 05:47:00,
2013-09-13 00:52:00,68.4,59.0,30.08,East,80,7.0,10.0,72,0.01,,---,0.01,0.00,VWS V14.01,2013-09-13 05:52:00,
2013-09-13 00:57:00,68.4,59.0,30.08,ENE,63,5.0,10.0,72,0.01,,---,0.01,0.00,VWS V14.01,2013-09-13 05:57:00,
2013-09-13 01:00:00,68.3,58.5,30.08,ENE,59,4.0,10.0,71,0.01,,---,0.01,0.00,VWS V14.01,2013-09-13 06:00:00,
2013-09-13 01:02:00,68.3,58.2,30.08,East,86,7.0,12.0,70,0.01,,---,0.01,0.00,VWS V14.01,2013-09-13 06:02:00,
2013-09-13 01:07:00,68.4,57.8,30.08,NE,40,2.0,12.0,69,0.01,,---,0.01,0.00,VWS V14.01,2013-09-13 06:07:00,
2013-09-13 01:12:00,68.4,57.8,30.08,ENE,57,4.0,12.0,69,0.01,,---,0.01,0.00,VWS V14.01,2013-09-13 06:12:00,
2013-09-13 01:17:00,68.4,56.6,30.08,NNE,17,6.0,12.0,66,0.01,,---,0.01,0.00,VWS V14.01,2013-09-13 06:17:00,
2013-09-13 01:22:00,68.4,57.0,30.09,NNE,32,5.0,12.0,67,0.01,,---,0.01,0.00,VWS V14.01,2013-09-13 06:22:00,
2013-09-13 01:27:00,68.4,57.0,30.09,NE,51,6.0,12.0,67,0.01,,---,0.01,0.00,VWS V14.01,2013-09-13 06:27:00,
2013-09-13 01:30:00,68.4,56.6,30.09,NE,55,3.0,12.0,66,0.01,,---,0.01,0.00,VWS V14.01,2013-09-13 06:30:00,
2013-09-13 01:32:00,68.3,56.5,30.09,NE,49,3.0,8.0,66,0.01,,---,0.01,0.00,VWS V14.01,2013-09-13 06:32:00,
2013-09-13 01:37:00,68.3,56.5,30.09,East,90,7.0,8.0,66,0.01,,---,0.01,0.00,VWS V14.01,2013-09-13 06:37:00,
2013-09-13 01:42:00,68.1,56.3,30.08,ENE,60,4.0,9.0,66,0.01,,---,0.01,0.00,VWS V14.01,2013-09-13 06:42:00,
2013-09-13 01:47:00,68.1,55.9,30.08,ENE,70,7.0,9.0,65,0.01,,---,0.01,0.00,VWS V14.01,2013-09-13 06:47:00,
2013-09-13 01:52:00,67.9,55.7,30.08,ENE,75,3.0,9.0,65,0.01,,---,0.01,0.00,VWS V14.01,2013-09-13 06:52:00,
2013-09-13 01:57:00,67.8,56.0,30.08,ENE,59,3.0,9.0,66,0.01,,---,0.01,0.00,VWS V14.01,2013-09-13 06:57:00,
2013-09-13 02:00:00,67.8,55.6,30.08,NE,46,5.0,9.0,65,0.01,,---,0.01,0.00,VWS V14.01,2013-09-13 07:00:00,
2013-09-13 02:02:00,67.8,55.6,30.08,ENE,61,6.0,7.0,65,0.00,,---,0.01,0.00,VWS V14.01,2013-09-13 07:02:00,
2013-09-13 02:07:00,67.6,55.8,30.08,NE,44,2.0,7.0,66,0.00,,---,0.01,0.00,VWS V14.01,2013-09-13 07:07:00,
2013-09-13 02:12:00,67.6,55.8,30.08,NE,42,4.0,7.0,66,0.00,,---,0.01,0.00,VWS V14.01,2013-09-13 07:12:00,
2013-09-13 02:17:00,67.4,55.2,30.08,ENE,72,5.0,7.0,65,0.00,,---,0.01,0.00,VWS V14.01,2013-09-13 07:17:00,
2013-09-13 02:22:00,67.4,55.2,30.09,East,80,3.0,8.0,65,0.00,,---,0.01,0.00,VWS V14.01,2013-09-13 07:22:00,
2013-09-13 02:27:00,67.3,54.7,30.09,ENE,71,4.0,8.0,64,0.00,,---,0.01,0.00,VWS V14.01,2013-09-13 07:27:00,
2013-09-13 02:30:00,67.3,55.2,30.09,NE,45,5.0,8.0,65,0.00,,---,0.01,0.00,VWS V14.01,2013-09-13 07:30:00,
2013-09-13 02:32:00,67.3,55.2,30.09,NE,47,3.0,6.0,65,0.00,,---,0.01,0.00,VWS V14.01,2013-09-13 07:32:00,
2013-09-13 02:37:00,67.3,55.2,30.09,ENE,66,4.0,6.0,65,0.00,,---,0.01,0.00,VWS V14.01,2013-09-13 07:37:00,
2013-09-13 02:42:00,67.3,55.2,30.09,ENE,63,2.0,6.0,65,0.00,,---,0.01,0.00,VWS V14.01,2013-09-13 07:42:00,
2013-09-13 02:47:00,67.3,54.7,30.09,ENE,59,3.0,6.0,64,0.00,,---,0.01,0.00,VWS V14.01,2013-09-13 07:47:00,
2013-09-13 02:52:00,67.3,54.3,30.09,ENE,62,1.0,6.0,63,0.00,,---,0.01,0.00,VWS V14.01,2013-09-13 07:52:00,
2013-09-13 02:57:00,67.3,54.3,30.09,NE,54,4.0,6.0,63,0.00,,---,0.01,0.00,VWS V14.01,2013-09-13 07:57:00,
2013-09-13 03:00:00,67.1,54.1,30.09,ENE,78,1.0,6.0,63,0.00,,---,0.01,0.00,VWS V14.01,2013-09-13 08:00:00,
2013-09-13 03:02:00,67.1,54.1,30.09,ENE,70,4.0,6.0,63,0.00,,---,0.01,0.00,VWS V14.01,2013-09-13 08:02:00,
2013-09-13 03:07:00,67.1,54.1,30.09,ENE,67,3.0,6.0,63,0.00,,---,0.01,0.00,VWS V14.01,2013-09-13 08:07:00,
2013-09-13 03:12:00,66.9,53.9,30.09,East,84,4.0,7.0,63,0.00,,---,0.01,0.00,VWS V14.01,2013-09-13 08:12:00,
2013-09-13 03:17:00,66.9,53.9,30.09,ENE,72,5.0,7.0,63,0.00,,---,0.01,0.00,VWS V14.01,2013-09-13 08:17:00,
2013-09-13 03:22:00,66.8,53.8,30.09,East,82,2.0,7.0,63,0.00,,---,0.01,0.00,VWS V14.01,2013-09-13 08:22:00,
2013-09-13 03:27:00,66.8,53.8,30.09,NE,46,3.0,7.0,63,0.00,,---,0.01,0.00,VWS V14.01,2013-09-13 08:27:00,
2013-09-13 03:30:00,66.6,53.2,30.09,East,93,6.0,7.0,62,0.00,,---,0.01,0.00,VWS V14.01,2013-09-13 08:30:00,
2013-09-13 03:32:00,66.6,53.6,30.09,East,83,2.0,6.0,63,0.00,,---,0.01,0.00,VWS V14.01,2013-09-13 08:32:00,
2013-09-13 03:37:00,66.6,53.2,30.09,ENE,59,3.0,6.0,62,0.00,,---,0.01,0.00,VWS V14.01,2013-09-13 08:37:00,
2013-09-13 03:42:00,66.4,53.0,30.09,ENE,71,4.0,6.0,62,0.00,,---,0.01,0.00,VWS V14.01,2013-09-13 08:42:00,
2013-09-13 03:47:00,66.4,53.4,30.09,ENE,58,4.0,6.0,63,0.00,,---,0.01,0.00,VWS V14.01,2013-09-13 08:47:00,
2013-09-13 03:52:00,66.3,53.3,30.09,ENE,77,4.0,7.0,63,0.00,,---,0.01,0.00,VWS V14.01,2013-09-13 08:52:00,
2013-09-13 03:57:00,66.1,53.2,30.09,ESE,107,1.0,7.0,63,0.00,,---,0.01,0.00,VWS V14.01,2013-09-13 08:57:00,
2013-09-13 04:00:00,66.1,53.6,30.09,ENE,70,6.0,7.0,64,0.00,,---,0.01,0.00,VWS V14.01,2013-09-13 09:00:00,
2013-09-13 04:02:00,66.1,53.2,30.09,East,82,6.0,6.0,63,0.00,,---,0.01,0.00,VWS V14.01,2013-09-13 09:02:00,
2013-09-13 04:07:00,66.0,52.6,30.09,East,96,6.0,7.0,62,0.00,,---,0.01,0.00,VWS V14.01,2013-09-13 09:07:00,
2013-09-13 04:12:00,66.0,52.6,30.09,East,97,6.0,8.0,62,0.00,,---,0.01,0.00,VWS V14.01,2013-09-13 09:12:00,
2013-09-13 04:17:00,65.8,52.4,30.09,ENE,68,3.0,8.0,62,0.00,,---,0.01,0.00,VWS V14.01,2013-09-13 09:17:00,
2013-09-13 04:22:00,65.8,52.4,30.09,ENE,76,4.0,8.0,62,0.00,,---,0.01,0.00,VWS V14.01,2013-09-13 09:22:00,
2013-09-13 04:27:00,65.8,52.4,30.09,East,80,4.0,10.0,62,0.00,,---,0.01,0.00,VWS V14.01,2013-09-13 09:27:00,
2013-09-13 04:30:00,65.6,52.7,30.09,East,92,4.0,10.0,63,0.00,,---,0.01,0.00,VWS V14.01,2013-09-13 09:30:00,
2013-09-13 04:32:00,65.6,52.7,30.09,ENE,65,2.0,6.0,63,0.00,,---,0.01,0.00,VWS V14.01,2013-09-13 09:32:00,
2013-09-13 04:37:00,65.5,52.2,30.09,ENE,78,7.0,8.0,62,0.00,,---,0.01,0.00,VWS V14.01,2013-09-13 09:37:00,
2013-09-13 04:42:00,65.5,52.6,30.09,East,100,7.0,8.0,63,0.01,,---,0.02,0.00,VWS V14.01,2013-09-13 09:42:00,
2013-09-13 04:47:00,65.3,52.4,30.09,ENE,72,2.0,8.0,63,0.01,,---,0.02,0.00,VWS V14.01,2013-09-13 09:47:00,
2013-09-13 04:52:00,65.3,52.8,30.09,ENE,74,2.0,8.0,64,0.01,,---,0.02,0.00,VWS V14.01,2013-09-13 09:52:00,
2013-09-13 04:57:00,65.2,52.3,30.09,East,86,4.0,8.0,63,0.01,,---,0.02,0.00,VWS V14.01,2013-09-13 09:57:00,
2013-09-13 05:00:00,65.2,52.7,30.09,ENE,61,3.0,8.0,64,0.01,,---,0.02,0.00,VWS V14.01,2013-09-13 10:00:00,
2013-09-13 05:02:00,65.0,52.5,30.09,East,93,6.0,7.0,64,0.01,,---,0.02,0.00,VWS V14.01,2013-09-13 10:02:00,
2013-09-13 05:07:00,65.0,52.5,30.09,ESE,103,6.0,8.0,64,0.01,,---,0.02,0.00,VWS V14.01,2013-09-13 10:07:00,
2013-09-13 05:12:00,64.8,52.3,30.09,East,86,4.0,8.0,64,0.01,,---,0.02,0.00,VWS V14.01,2013-09-13 10:12:00,
2013-09-13 05:17:00,64.7,52.7,30.09,NE,55,3.0,8.0,65,0.01,,---,0.02,0.00,VWS V14.01,2013-09-13 10:17:00,
2013-09-13 05:22:00,64.5,52.5,30.10,ENE,65,4.0,8.0,65,0.01,,---,0.02,0.00,VWS V14.01,2013-09-13 10:22:00,
2013-09-13 05:27:00,64.3,52.3,30.10,ENE,69,1.0,8.0,65,0.01,,---,0.02,0.00,VWS V14.01,2013-09-13 10:27:00,
2013-09-13 05:30:00,64.3,52.7,30.10,ENE,64,3.0,8.0,66,0.01,,---,0.02,0.00,VWS V14.01,2013-09-13 10:30:00,
2013-09-13 05:32:00,64.2,52.6,30.10,ENE,62,5.0,5.0,66,0.01,,---,0.02,0.00,VWS V14.01,2013-09-13 10:32:00,
2013-09-13 05:37:00,64.0,52.4,30.10,NE,53,5.0,6.0,66,0.01,,---,0.02,0.00,VWS V14.01,2013-09-13 10:37:00,
2013-09-13 05:42:00,64.0,52.4,30.10,NE,40,5.0,7.0,66,0.01,,---,0.02,0.00,VWS V14.01,2013-09-13 10:42:00,
2013-09-13 05:47:00,63.9,52.3,30.10,ENE,63,4.0,7.0,66,0.01,,---,0.02,0.00,VWS V14.01,2013-09-13 10:47:00,
2013-09-13 05:52:00,63.7,52.1,30.10,NE,45,2.0,7.0,66,0.01,,---,0.02,0.00,VWS V14.01,2013-09-13 10:52:00,
2013-09-13 05:57:00,63.7,52.5,30.10,ENE,57,2.0,7.0,67,0.01,,---,0.02,0.00,VWS V14.01,2013-09-13 10:57:00,
2013-09-13 06:00:00,63.5,52.4,30.10,ENE,64,3.0,7.0,67,0.01,,---,0.02,0.00,VWS V14.01,2013-09-13 11:00:00,
2013-09-13 06:02:00,63.5,52.4,30.10,ENE,63,3.0,7.0,67,0.00,,---,0.02,0.00,VWS V14.01,2013-09-13 11:02:00,
2013-09-13 06:07:00,63.4,52.7,30.10,ENE,71,4.0,7.0,68,0.00,,---,0.02,0.00,VWS V14.01,2013-09-13 11:07:00,
2013-09-13 06:12:00,63.2,52.5,30.11,ENE,71,3.0,7.0,68,0.00,,---,0.02,0.00,VWS V14.01,2013-09-13 11:12:00,
2013-09-13 06:17:00,63.1,52.4,30.10,ENE,64,3.0,7.0,68,0.00,,---,0.02,0.00,VWS V14.01,2013-09-13 11:17:00,
2013-09-13 06:22:00,63.1,52.4,30.10,ENE,67,4.0,7.0,68,0.00,,---,0.02,0.00,VWS V14.01,2013-09-13 11:22:00,
2013-09-13 06:27:00,62.9,52.6,30.10,ENE,71,3.0,7.0,69,0.00,,---,0.02,0.00,VWS V14.01,2013-09-13 11:27:00,
2013-09-13 06:30:00,62.9,52.2,30.10,ENE,71,0.0,7.0,68,0.00,,---,0.02,0.00,VWS V14.01,2013-09-13 11:30:00,
2013-09-13 06:32:00,62.9,52.6,30.10,ENE,58,0.0,4.0,69,0.00,,---,0.02,0.00,VWS V14.01,2013-09-13 11:32:00,
2013-09-13 06:37:00,62.9,52.6,30.10,ENE,58,2.0,4.0,69,0.00,,---,0.02,0.00,VWS V14.01,2013-09-13 11:37:00,
2013-09-13 06:42:00,62.7,52.4,30.10,ENE,59,2.0,4.0,69,0.00,,---,0.02,0.00,VWS V14.01,2013-09-13 11:42:00,
2013-09-13 06:47:00,62.7,52.4,30.11,ENE,59,3.0,4.0,69,0.00,,---,0.02,0.00,VWS V14.01,2013-09-13 11:47:00,
2013-09-13 06:52:00,62.7,52.4,30.11,ENE,59,0.0,4.0,69,0.00,,---,0.02,0.00,VWS V14.01,2013-09-13 11:52:00,
2013-09-13 06:57:00,62.7,52.4,30.11,ENE,59,3.0,4.0,69,0.00,,---,0.02,0.00,VWS V14.01,2013-09-13 11:57:00,
2013-09-13 07:00:00,62.7,52.4,30.11,ENE,58,2.0,4.0,69,0.00,,---,0.02,0.00,VWS V14.01,2013-09-13 12:00:00,
2013-09-13 07:02:00,62.6,52.7,30.10,ENE,58,3.0,4.0,70,0.00,,---,0.02,0.00,VWS V14.01,2013-09-13 12:02:00,
2013-09-13 07:07:00,62.6,52.7,30.11,ENE,58,4.0,4.0,70,0.00,,---,0.02,5.00,VWS V14.01,2013-09-13 12:07:00,
2013-09-13 07:12:00,62.6,52.7,30.11,ENE,58,2.0,4.0,70,0.00,,---,0.02,0.00,VWS V14.01,2013-09-13 12:12:00,
2013-09-13 07:17:00,62.6,52.7,30.11,ENE,58,1.0,5.0,70,0.00,,---,0.02,0.00,VWS V14.01,2013-09-13 12:17:00,
2013-09-13 07:22:00,62.6,52.7,30.11,ENE,58,2.0,5.0,70,0.00,,---,0.02,0.00,VWS V14.01,2013-09-13 12:22:00,
2013-09-13 07:27:00,62.7,52.4,30.11,ENE,58,3.0,5.0,69,0.00,,---,0.02,5.00,VWS V14.01,2013-09-13 12:27:00,
2013-09-13 07:30:00,62.7,52.8,30.11,ENE,58,4.0,5.0,70,0.00,,---,0.02,5.00,VWS V14.01,2013-09-13 12:30:00,
2013-09-13 07:32:00,62.7,52.8,30.11,ENE,62,3.0,5.0,70,0.00,,---,0.02,7.00,VWS V14.01,2013-09-13 12:32:00,
2013-09-13 07:37:00,62.7,52.8,30.11,ENE,62,2.0,5.0,70,0.00,,---,0.02,11.00,VWS V14.01,2013-09-13 12:37:00,
2013-09-13 07:42:00,62.7,52.4,30.11,ENE,73,5.0,6.0,69,0.00,,---,0.02,23.00,VWS V14.01,2013-09-13 12:42:00,
2013-09-13 07:47:00,62.7,52.4,30.11,ENE,71,3.0,6.0,69,0.00,,---,0.02,39.00,VWS V14.01,2013-09-13 12:47:00,
2013-09-13 07:52:00,62.7,52.4,30.11,ENE,75,4.0,7.0,69,0.00,,---,0.02,47.00,VWS V14.01,2013-09-13 12:52:00,
2013-09-13 07:57:00,62.9,53.0,30.11,NE,55,2.0,7.0,70,0.00,,---,0.02,53.00,VWS V14.01,2013-09-13 12:57:00,
2013-09-13 08:00:00,62.9,52.6,30.11,East,87,3.0,7.0,69,0.00,,---,0.02,54.00,VWS V14.01,2013-09-13 13:00:00,
2013-09-13 08:02:00,62.9,52.6,30.11,ENE,74,3.0,6.0,69,0.00,,---,0.02,58.00,VWS V14.01,2013-09-13 13:02:00,
2013-09-13 08:08:00,62.9,52.6,30.11,East,88,4.0,7.0,69,0.00,,---,0.02,62.00,VWS V14.01,2013-09-13 13:08:00,
2013-09-13 08:13:00,62.9,52.6,30.11,East,81,2.0,7.0,69,0.00,,---,0.02,67.00,VWS V14.01,2013-09-13 13:13:00,
2013-09-13 08:18:00,63.1,52.8,30.12,ENE,76,3.0,7.0,69,0.00,,---,0.02,70.00,VWS V14.01,2013-09-13 13:18:00,
2013-09-13 08:23:00,63.1,52.8,30.11,East,81,4.0,7.0,69,0.00,,---,0.02,74.00,VWS V14.01,2013-09-13 13:23:00,
2013-09-13 08:28:00,63.2,52.9,30.11,ENE,77,5.0,8.0,69,0.00,,---,0.02,79.00,VWS V14.01,2013-09-13 13:28:00,
2013-09-13 08:30:00,63.2,52.9,30.11,East,84,3.0,8.0,69,0.00,,---,0.02,83.00,VWS V14.01,2013-09-13 13:30:00,
2013-09-13 08:33:00,63.2,52.9,30.11,East,84,4.0,7.0,69,0.00,,---,0.02,86.00,VWS V14.01,2013-09-13 13:33:00,
2013-09-13 08:38:00,63.2,52.5,30.12,NE,51,3.0,7.0,68,0.00,,---,0.02,93.00,VWS V14.01,2013-09-13 13:38:00,
2013-09-13 08:43:00,63.4,52.7,30.12,NE,51,3.0,7.0,68,0.00,,---,0.02,98.00,VWS V14.01,2013-09-13 13:43:00,
2013-09-13 08:48:00,63.4,52.3,30.12,East,84,4.0,7.0,67,0.00,,---,0.02,102.00,VWS V14.01,2013-09-13 13:48:00,
2013-09-13 08:53:00,63.5,52.8,30.12,ESE,105,4.0,7.0,68,0.00,,---,0.02,105.00,VWS V14.01,2013-09-13 13:53:00,
2013-09-13 08:58:00,63.7,52.1,30.12,ENE,66,4.0,8.0,66,0.00,,---,0.02,111.00,VWS V14.01,2013-09-13 13:58:00,
2013-09-13 09:00:00,63.7,52.1,30.12,East,86,2.0,8.0,66,0.00,,---,0.02,111.00,VWS V14.01,2013-09-13 14:00:00,
2013-09-13 09:03:00,63.9,52.3,30.12,East,89,3.0,7.0,66,0.00,,---,0.02,113.00,VWS V14.01,2013-09-13 14:03:00,
2013-09-13 09:08:00,64.0,52.4,30.12,East,89,5.0,8.0,66,0.00,,---,0.02,120.00,VWS V14.01,2013-09-13 14:08:00,
2013-09-13 09:13:00,64.2,52.2,30.12,ESE,109,7.0,8.0,65,0.00,,---,0.02,123.00,VWS V14.01,2013-09-13 14:13:00,
2013-09-13 09:18:00,64.3,51.9,30.12,East,88,4.0,8.0,64,0.00,,---,0.02,128.00,VWS V14.01,2013-09-13 14:18:00,
2013-09-13 09:23:00,64.5,52.5,30.12,East,84,4.0,9.0,65,0.00,,---,0.02,135.00,VWS V14.01,2013-09-13 14:23:00,
2013-09-13 09:28:00,64.5,52.1,30.12,East,101,4.0,9.0,64,0.00,,---,0.02,142.00,VWS V14.01,2013-09-13 14:28:00,
2013-09-13 09:30:00,64.5,51.6,30.12,East,101,11.0,11.0,63,0.00,,---,0.02,118.00,VWS V14.01,2013-09-13 14:30:00,
2013-09-13 09:33:00,64.5,52.1,30.12,East,89,4.0,12.0,64,0.00,,---,0.02,149.00,VWS V14.01,2013-09-13 14:33:00,
2013-09-13 09:38:00,64.7,51.4,30.12,East,95,5.0,12.0,62,0.00,,---,0.02,151.00,VWS V14.01,2013-09-13 14:38:00,
2013-09-13 09:43:00,64.8,51.5,30.12,East,101,4.0,12.0,62,0.00,,---,0.02,162.00,VWS V14.01,2013-09-13 14:43:00,
2013-09-13 09:48:00,65.0,52.1,30.12,East,93,5.0,12.0,63,0.00,,---,0.02,172.00,VWS V14.01,2013-09-13 14:48:00,
2013-09-13 09:53:00,65.3,52.4,30.12,ESE,118,7.0,12.0,63,0.00,,---,0.02,186.00,VWS V14.01,2013-09-13 14:53:00,
2013-09-13 09:58:00,65.5,51.7,30.12,East,86,5.0,12.0,61,0.00,,---,0.02,200.00,VWS V14.01,2013-09-13 14:58:00,
2013-09-13 10:00:00,65.5,51.3,30.12,East,96,5.0,12.0,60,0.00,,---,0.02,204.00,VWS V14.01,2013-09-13 15:00:00,
2013-09-13 10:03:00,65.6,51.4,30.12,ESE,114,8.0,8.0,60,0.00,,---,0.02,214.00,VWS V14.01,2013-09-13 15:03:00,
2013-09-13 10:08:00,65.8,52.4,30.12,East,79,5.0,9.0,62,0.00,,---,0.02,225.00,VWS V14.01,2013-09-13 15:08:00,
2013-09-13 10:13:00,66.0,51.7,30.13,ENE,63,1.0,9.0,60,0.00,,---,0.02,236.00,VWS V14.01,2013-09-13 15:13:00,
2013-09-13 10:18:00,66.0,51.7,30.12,SE,127,8.0,9.0,60,0.00,,---,0.02,260.00,VWS V14.01,2013-09-13 15:18:00,
2013-09-13 10:23:00,66.3,52.0,30.13,ESE,113,6.0,9.0,60,0.00,,---,0.02,336.00,VWS V14.01,2013-09-13 15:23:00,
2013-09-13 10:28:00,66.6,51.4,30.12,ESE,116,7.0,11.0,58,0.00,,---,0.02,332.00,VWS V14.01,2013-09-13 15:28:00,
2013-09-13 10:30:00,66.6,51.4,30.12,ESE,113,5.0,11.0,58,0.00,,---,0.02,397.00,VWS V14.01,2013-09-13 15:30:00,
2013-09-13 10:33:00,66.9,52.1,30.12,East,94,8.0,11.0,59,0.00,,---,0.02,352.00,VWS V14.01,2013-09-13 15:33:00,
2013-09-13 10:38:00,67.3,51.6,30.12,ESE,110,7.0,15.0,57,0.00,,---,0.02,392.00,VWS V14.01,2013-09-13 15:38:00,
2013-09-13 10:43:00,67.6,51.8,30.12,ESE,105,11.0,15.0,57,0.00,,---,0.02,455.00,VWS V14.01,2013-09-13 15:43:00,
2013-09-13 10:48:00,67.9,51.6,30.12,East,90,7.0,15.0,56,0.00,,---,0.02,390.00,VWS V14.01,2013-09-13 15:48:00,
2013-09-13 10:53:00,68.1,50.8,30.12,SE,141,6.0,15.0,54,0.00,,---,0.02,443.00,VWS V14.01,2013-09-13 15:53:00,
2013-09-13 10:58:00,68.8,50.5,30.12,ESE,108,13.0,15.0,52,0.01,,---,0.03,394.00,VWS V14.01,2013-09-13 15:58:00,
2013-09-13 11:00:00,68.8,50.0,30.12,ESE,106,9.0,15.0,51,0.01,,---,0.03,388.00,VWS V14.01,2013-09-13 16:00:00,
2013-09-13 11:03:00,68.6,50.3,30.12,SE,140,8.0,14.0,52,0.01,,---,0.03,339.00,VWS V14.01,2013-09-13 16:03:00,
2013-09-13 11:08:00,68.8,50.0,30.12,ESE,107,8.0,14.0,51,0.01,,---,0.03,367.00,VWS V14.01,2013-09-13 16:08:00,
2013-09-13 11:13:00,69.1,50.8,30.12,ESE,106,6.0,14.0,52,0.01,,---,0.03,454.00,VWS V14.01,2013-09-13 16:13:00,
2013-09-13 11:18:00,69.3,49.9,30.12,ESE,116,13.0,16.0,50,0.01,,---,0.03,462.00,VWS V14.01,2013-09-13 16:18:00,
2013-09-13 11:23:00,69.3,49.3,30.12,ESE,117,8.0,16.0,49,0.01,,---,0.03,432.00,VWS V14.01,2013-09-13 16:23:00,
2013-09-13 11:28:00,69.4,50.0,30.12,ESE,106,8.0,16.0,50,0.01,,---,0.03,425.00,VWS V14.01,2013-09-13 16:28:00,
2013-09-13 11:30:00,69.6,50.7,30.12,ESE,104,9.0,16.0,51,0.01,,---,0.03,420.00,VWS V14.01,2013-09-13 16:30:00,
2013-09-13 11:33:00,69.9,49.9,30.12,ENE,76,10.0,13.0,49,0.01,,---,0.03,424.00,VWS V14.01,2013-09-13 16:33:00,
2013-09-13 11:38:00,69.8,49.2,30.12,East,100,9.0,16.0,48,0.01,,---,0.03,399.00,VWS V14.01,2013-09-13 16:38:00,
2013-09-13 11:43:00,69.6,49.1,30.12,East,85,11.0,16.0,48,0.01,,---,0.03,399.00,VWS V14.01,2013-09-13 16:43:00,
2013-09-13 11:48:00,69.8,48.7,30.12,East,101,9.0,18.0,47,0.01,,---,0.03,459.00,VWS V14.01,2013-09-13 16:48:00,
2013-09-13 11:53:00,70.1,49.5,30.12,East,84,13.0,18.0,48,0.01,,---,0.03,541.00,VWS V14.01,2013-09-13 16:53:00,
2013-09-13 11:58:00,70.6,50.0,30.11,ENE,76,3.0,18.0,48,0.01,,---,0.03,452.00,VWS V14.01,2013-09-13 16:58:00,
2013-09-13 12:00:00,70.8,50.2,30.11,East,86,13.0,18.0,48,0.01,,---,0.03,436.00,VWS V14.01,2013-09-13 17:00:00,
2013-09-13 12:03:00,70.4,49.2,30.11,East,96,8.0,14.0,47,0.00,,---,0.03,408.00,VWS V14.01,2013-09-13 17:03:00,
2013-09-13 12:08:00,70.3,49.7,30.11,ESE,105,18.0,19.0,48,0.00,,---,0.03,478.00,VWS V14.01,2013-09-13 17:08:00,
2013-09-13 12:13:00,70.4,48.7,30.11,ESE,115,9.0,19.0,46,0.00,,---,0.03,464.00,VWS V14.01,2013-09-13 17:13:00,
2013-09-13 12:18:00,70.6,50.0,30.10,SE,135,6.0,19.0,48,0.00,,---,0.03,422.00,VWS V14.01,2013-09-13 17:18:00,
2013-09-13 12:23:00,70.9,49.1,30.10,East,96,9.0,19.0,46,0.00,,---,0.03,401.00,VWS V14.01,2013-09-13 17:23:00,
2013-09-13 12:28:00,70.8,49.0,30.10,East,98,11.0,19.0,46,0.00,,---,0.03,418.00,VWS V14.01,2013-09-13 17:28:00,
2013-09-13 12:30:00,70.8,49.6,30.10,East,86,3.0,19.0,47,0.00,,---,0.03,406.00,VWS V14.01,2013-09-13 17:30:00,
2013-09-13 12:33:00,70.9,49.1,30.10,SSW,211,4.0,12.0,46,0.00,,---,0.03,357.00,VWS V14.01,2013-09-13 17:33:00,
2013-09-13 12:38:00,71.1,48.7,30.09,East,88,5.0,14.0,45,0.00,,---,0.03,431.00,VWS V14.01,2013-09-13 17:38:00,
2013-09-13 12:43:00,71.3,48.9,30.09,East,96,12.0,15.0,45,0.00,,---,0.03,422.00,VWS V14.01,2013-09-13 17:43:00,
2013-09-13 12:48:00,71.3,48.9,30.09,ESE,113,4.0,15.0,45,0.00,,---,0.03,640.00,VWS V14.01,2013-09-13 17:48:00,
2013-09-13 12:53:00,71.6,48.6,30.09,ESE,119,8.0,15.0,44,0.00,,---,0.03,526.00,VWS V14.01,2013-09-13 17:53:00,
2013-09-13 12:58:00,71.6,47.9,30.09,East,86,11.0,15.0,43,0.00,,---,0.03,434.00,VWS V14.01,2013-09-13 17:58:00,
2013-09-13 13:00:00,71.6,47.9,30.09,ESE,113,9.0,15.0,43,0.00,,---,0.03,418.00,VWS V14.01,2013-09-13 18:00:00,
2013-09-13 13:03:00,71.6,47.9,30.08,East,99,12.0,12.0,43,0.00,,---,0.03,410.00,VWS V14.01,2013-09-13 18:03:00,
2013-09-13 13:08:00,72.0,47.7,30.08,East,82,7.0,14.0,42,0.00,,---,0.03,457.00,VWS V14.01,2013-09-13 18:08:00,
2013-09-13 13:13:00,72.0,48.3,30.08,ESE,114,9.0,15.0,43,0.00,,---,0.03,548.00,VWS V14.01,2013-09-13 18:13:00,
2013-09-13 13:18:00,72.1,47.8,30.08,East,89,7.0,15.0,42,0.00,,---,0.03,436.00,VWS V14.01,2013-09-13 18:18:00,
2013-09-13 13:23:00,72.0,47.0,30.08,East,90,8.0,15.0,41,0.00,,---,0.03,390.00,VWS V14.01,2013-09-13 18:23:00,
2013-09-13 13:28:00,71.8,46.9,30.07,ESE,108,12.0,15.0,41,0.00,,---,0.03,332.00,VWS V14.01,2013-09-13 18:28:00,
2013-09-13 13:30:00,71.8,47.5,30.07,East,90,8.0,15.0,42,0.00,,---,0.03,329.00,VWS V14.01,2013-09-13 18:30:00,
2013-09-13 13:33:00,71.8,46.9,30.07,ENE,57,5.0,8.0,41,0.00,,---,0.03,290.00,VWS V14.01,2013-09-13 18:33:00,
2013-09-13 13:38:00,71.8,48.1,30.07,East,94,7.0,14.0,43,0.00,,---,0.03,274.00,VWS V14.01,2013-09-13 18:38:00,
2013-09-13 13:43:00,71.8,47.5,30.07,ESE,110,5.0,14.0,42,0.00,,---,0.03,257.00,VWS V14.01,2013-09-13 18:43:00,
2013-09-13 13:48:00,71.8,48.1,30.07,ESE,107,4.0,14.0,43,0.00,,---,0.03,267.00,VWS V14.01,2013-09-13 18:48:00,
2013-09-13 13:53:00,72.0,48.3,30.07,ENE,72,7.0,14.0,43,0.00,,---,0.03,271.00,VWS V14.01,2013-09-13 18:53:00,
2013-09-13 13:58:00,72.0,47.7,30.07,East,86,4.0,14.0,42,0.00,,---,0.03,276.00,VWS V14.01,2013-09-13 18:58:00,
2013-09-13 14:00:00,72.0,47.7,30.07,East,86,5.0,14.0,42,0.00,,---,0.03,278.00,VWS V14.01,2013-09-13 19:00:00,
2013-09-13 14:03:00,72.0,47.0,30.06,East,85,6.0,10.0,41,0.00,,---,0.03,279.00,VWS V14.01,2013-09-13 19:03:00,
2013-09-13 14:08:00,72.0,47.7,30.06,NE,55,6.0,10.0,42,0.00,,---,0.03,306.00,VWS V14.01,2013-09-13 19:08:00,
2013-09-13 14:13:00,72.1,47.1,30.06,East,88,5.0,10.0,41,0.00,,---,0.03,315.00,VWS V14.01,2013-09-13 19:13:00,
2013-09-13 14:18:00,72.0,50.1,30.06,ENE,57,5.0,10.0,46,0.00,,---,0.03,322.00,VWS V14.01,2013-09-13 19:18:00,
2013-09-13 14:23:00,72.3,48.0,30.06,East,95,4.0,10.0,42,0.00,,---,0.03,327.00,VWS V14.01,2013-09-13 19:23:00,
2013-09-13 14:28:00,72.5,48.1,30.06,NE,54,6.0,10.0,42,0.00,,---,0.03,313.00,VWS V14.01,2013-09-13 19:28:00,
2013-09-13 14:30:00,72.5,48.1,30.06,NE,42,7.0,10.0,42,0.00,,---,0.03,309.00,VWS V14.01,2013-09-13 19:30:00,
2013-09-13 14:33:00,72.3,48.0,30.05,East,84,6.0,9.0,42,0.00,,---,0.03,297.00,VWS V14.01,2013-09-13 19:33:00,
2013-09-13 14:38:00,72.3,48.6,30.05,NE,53,4.0,9.0,43,0.00,,---,0.03,294.00,VWS V14.01,2013-09-13 19:38:00,
2013-09-13 14:43:00,72.3,47.3,30.05,East,94,2.0,11.0,41,0.00,,---,0.03,267.00,VWS V14.01,2013-09-13 19:43:00,
2013-09-13 14:48:00,72.5,47.5,30.04,NE,40,4.0,11.0,41,0.00,,---,0.03,251.00,VWS V14.01,2013-09-13 19:48:00,
2013-09-13 14:53:00,72.5,48.8,30.04,ESE,103,6.0,11.0,43,0.00,,---,0.03,241.00,VWS V14.01,2013-09-13 19:53:00,
2013-09-13 14:58:00,72.3,48.6,30.04,NE,40,4.0,11.0,43,0.00,,---,0.03,244.00,VWS V14.01,2013-09-13 19:58:00,
2013-09-13 15:00:00,72.3,47.3,30.04,ESE,109,7.0,11.0,41,0.01,,---,0.04,244.00,VWS V14.01,2013-09-13 20:00:00,
2013-09-13 15:03:00,72.3,49.2,30.04,East,83,2.0,9.0,44,0.01,,---,0.04,239.00,VWS V14.01,2013-09-13 20:03:00,
2013-09-13 15:08:00,72.5,48.8,30.04,East,84,5.0,11.0,43,0.01,,---,0.04,237.00,VWS V14.01,2013-09-13 20:08:00,
2013-09-13 15:13:00,72.3,49.8,30.03,NNE,13,6.0,11.0,45,0.01,,---,0.04,237.00,VWS V14.01,2013-09-13 20:13:00,
2013-09-13 15:18:00,72.1,48.4,30.03,NE,43,5.0,11.0,43,0.01,,---,0.04,239.00,VWS V14.01,2013-09-13 20:18:00,
2013-09-13 15:23:00,72.0,50.1,30.03,NE,49,4.0,11.0,46,0.01,,---,0.04,236.00,VWS V14.01,2013-09-13 20:23:00,
2013-09-13 15:28:00,71.8,48.7,30.03,ENE,71,8.0,11.0,44,0.01,,---,0.04,225.00,VWS V14.01,2013-09-13 20:28:00,
2013-09-13 15:30:00,72.0,49.5,30.03,ENE,74,6.0,11.0,45,0.01,,---,0.04,225.00,VWS V14.01,2013-09-13 20:30:00,
2013-09-13 15:33:00,72.0,49.5,30.03,ENE,68,5.0,10.0,45,0.01,,---,0.04,229.00,VWS V14.01,2013-09-13 20:33:00,
2013-09-13 15:39:00,72.0,49.5,30.03,NNE,28,7.0,10.0,45,0.01,,---,0.04,237.00,VWS V14.01,2013-09-13 20:39:00,
2013-09-13 15:44:00,72.0,50.1,30.03,NE,50,6.0,10.0,46,0.01,,---,0.04,243.00,VWS V14.01,2013-09-13 20:44:00,
2013-09-13 15:49:00,72.1,50.8,30.03,East,88,3.0,10.0,47,0.01,,---,0.04,237.00,VWS V14.01,2013-09-13 20:49:00,
2013-09-13 15:54:00,72.1,49.6,30.03,NNE,18,5.0,10.0,45,0.01,,---,0.04,234.00,VWS V14.01,2013-09-13 20:54:00,
2013-09-13 15:59:00,72.3,50.4,30.03,ENE,59,3.0,10.0,46,0.01,,---,0.04,230.00,VWS V14.01,2013-09-13 20:59:00,
2013-09-13 16:00:00,72.3,50.4,30.03,ENE,63,4.0,10.0,46,0.01,,---,0.04,230.00,VWS V14.01,2013-09-13 21:00:00,
2013-09-13 16:04:00,72.3,49.2,30.03,ENE,71,6.0,7.0,44,0.00,,---,0.04,234.00,VWS V14.01,2013-09-13 21:04:00,
2013-09-13 16:09:00,72.3,50.4,30.03,NE,40,5.0,7.0,46,0.00,,---,0.04,237.00,VWS V14.01,2013-09-13 21:09:00,
2013-09-13 16:14:00,72.5,50.6,30.02,ENE,76,4.0,7.0,46,0.00,,---,0.04,236.00,VWS V14.01,2013-09-13 21:14:00,
2013-09-13 16:19:00,72.5,50.0,30.02,NE,38,6.0,10.0,45,0.00,,---,0.04,220.00,VWS V14.01,2013-09-13 21:19:00,
2013-09-13 16:24:00,72.3,49.8,30.02,NE,55,5.0,10.0,45,0.00,,---,0.04,209.00,VWS V14.01,2013-09-13 21:24:00,
2013-09-13 16:29:00,72.3,49.8,30.02,NNE,32,6.0,10.0,45,0.00,,---,0.04,204.00,VWS V14.01,2013-09-13 21:29:00,
2013-09-13 16:30:00,72.3,49.8,30.02,NE,46,4.0,10.0,45,0.00,,---,0.04,204.00,VWS V14.01,2013-09-13 21:30:00,
2013-09-13 16:34:00,72.1,49.6,30.02,NE,40,4.0,8.0,45,0.00,,---,0.04,199.00,VWS V14.01,2013-09-13 21:34:00,
2013-09-13 16:39:00,72.3,49.8,30.01,NE,49,6.0,8.0,45,0.00,,---,0.04,204.00,VWS V14.01,2013-09-13 21:39:00,
2013-09-13 16:44:00,72.3,49.8,30.01,NE,43,4.0,8.0,45,0.00,,---,0.04,209.00,VWS V14.01,2013-09-13 21:44:00,
2013-09-13 16:49:00,72.3,49.8,30.01,NE,46,7.0,8.0,45,0.00,,---,0.04,199.00,VWS V14.01,2013-09-13 21:49:00,
2013-09-13 16:54:00,72.3,49.8,30.01,NE,56,6.0,8.0,45,0.00,,---,0.04,183.00,VWS V14.01,2013-09-13 21:54:00,
2013-09-13 16:59:00,72.3,49.8,30.01,East,90,6.0,8.0,45,0.00,,---,0.04,174.00,VWS V14.01,2013-09-13 21:59:00,
2013-09-13 17:00:00,72.5,49.4,30.01,ENE,71,8.0,10.0,44,0.00,,---,0.04,174.00,VWS V14.01,2013-09-13 22:00:00,
2013-09-13 17:04:00,72.5,50.0,30.00,NE,46,2.0,8.0,45,0.00,,---,0.04,169.00,VWS V14.01,2013-09-13 22:04:00,
2013-09-13 17:09:00,72.5,49.4,30.00,NE,44,4.0,8.0,44,0.00,,---,0.04,160.00,VWS V14.01,2013-09-13 22:09:00,
2013-09-13 17:14:00,72.5,48.8,30.00,ENE,58,6.0,8.0,43,0.00,,---,0.04,153.00,VWS V14.01,2013-09-13 22:14:00,
2013-09-13 17:19:00,72.5,48.8,30.00,ENE,63,10.0,10.0,43,0.00,,---,0.04,148.00,VWS V14.01,2013-09-13 22:19:00,
2013-09-13 17:24:00,72.3,49.8,30.00,ENE,69,8.0,11.0,45,0.00,,---,0.04,146.00,VWS V14.01,2013-09-13 22:24:00,
2013-09-13 17:29:00,72.3,49.8,30.00,NNE,32,4.0,11.0,45,0.00,,---,0.04,142.00,VWS V14.01,2013-09-13 22:29:00,
2013-09-13 17:30:00,72.3,50.4,30.00,NE,40,6.0,11.0,46,0.00,,---,0.04,144.00,VWS V14.01,2013-09-13 22:30:00,
2013-09-13 17:34:00,72.1,50.2,30.00,ENE,62,10.0,10.0,46,0.00,,---,0.04,149.00,VWS V14.01,2013-09-13 22:34:00,
2013-09-13 17:39:00,72.1,50.2,30.00,ENE,63,6.0,10.0,46,0.00,,---,0.04,155.00,VWS V14.01,2013-09-13 22:39:00,
2013-09-13 17:44:00,72.0,50.7,29.99,ENE,76,6.0,11.0,47,0.00,,---,0.04,148.00,VWS V14.01,2013-09-13 22:44:00,
2013-09-13 17:49:00,72.1,51.3,29.99,East,88,7.0,11.0,48,0.00,,---,0.04,144.00,VWS V14.01,2013-09-13 22:49:00,
2013-09-13 17:54:00,72.0,51.3,29.99,SE,129,5.0,11.0,48,0.00,,---,0.04,130.00,VWS V14.01,2013-09-13 22:54:00,
2013-09-13 17:59:00,72.0,51.3,29.99,ENE,62,5.0,11.0,48,0.00,,---,0.04,121.00,VWS V14.01,2013-09-13 22:59:00,
2013-09-13 18:00:00,72.0,51.3,29.99,NE,43,5.0,11.0,48,0.00,,---,0.04,121.00,VWS V14.01,2013-09-13 23:00:00,
2013-09-13 18:04:00,71.8,51.1,29.99,ENE,77,7.0,10.0,48,0.00,,---,0.04,107.00,VWS V14.01,2013-09-13 23:04:00,
2013-09-13 18:09:00,71.8,49.9,29.99,NE,40,4.0,10.0,46,0.00,,---,0.04,95.00,VWS V14.01,2013-09-13 23:09:00,
2013-09-13 18:14:00,71.8,50.5,29.99,East,96,11.0,11.0,47,0.00,,---,0.04,111.00,VWS V14.01,2013-09-13 23:14:00,
2013-09-13 18:19:00,71.8,50.5,29.99,ENE,73,7.0,11.0,47,0.00,,---,0.04,246.00,VWS V14.01,2013-09-13 23:19:00,
2013-09-13 18:24:00,71.8,50.5,29.98,ENE,73,5.0,11.0,47,0.00,,---,0.04,185.00,VWS V14.01,2013-09-13 23:24:00,
2013-09-13 18:29:00,71.8,51.1,29.98,East,79,7.0,11.0,48,0.00,,---,0.04,105.00,VWS V14.01,2013-09-13 23:29:00,
2013-09-13 18:30:00,71.8,50.5,29.98,ENE,70,6.0,11.0,47,0.00,,---,0.04,104.00,VWS V14.01,2013-09-13 23:30:00,
2013-09-13 18:34:00,71.8,51.1,29.98,NE,53,3.0,10.0,48,0.00,,---,0.04,102.00,VWS V14.01,2013-09-13 23:34:00,
2013-09-13 18:39:00,71.8,50.5,29.98,East,84,7.0,10.0,47,0.00,,---,0.04,127.00,VWS V14.01,2013-09-13 23:39:00,
2013-09-13 18:44:00,71.6,50.9,29.98,East,89,6.0,10.0,48,0.00,,---,0.04,93.00,VWS V14.01,2013-09-13 23:44:00,
2013-09-13 18:49:00,71.6,51.5,29.98,East,86,5.0,10.0,49,0.00,,---,0.04,86.00,VWS V14.01,2013-09-13 23:49:00,
2013-09-13 18:54:00,71.6,50.9,29.97,East,87,6.0,10.0,48,0.00,,---,0.04,76.00,VWS V14.01,2013-09-13 23:54:00,
2013-09-13 18:59:00,71.5,51.4,29.97,ENE,67,4.0,10.0,49,0.00,,---,0.04,63.00,VWS V14.01,2013-09-13 23:59:00,
2013-09-13 19:00:00,71.5,51.4,29.97,East,92,8.0,10.0,49,0.00,,---,0.04,63.00,VWS V14.01,2013-09-14 00:00:00,
2013-09-13 19:04:00,71.5,50.8,29.98,ENE,76,6.0,8.0,48,0.00,,---,0.04,47.00,VWS V14.01,2013-09-14 00:04:00,
2013-09-13 19:09:00,71.3,51.2,29.97,East,84,6.0,12.0,49,0.00,,---,0.04,39.00,VWS V14.01,2013-09-14 00:09:00,
2013-09-13 19:14:00,71.1,51.5,29.97,East,82,4.0,12.0,50,0.00,,---,0.04,30.00,VWS V14.01,2013-09-14 00:14:00,
2013-09-13 19:19:00,70.9,51.3,29.97,ENE,77,5.0,12.0,50,0.00,,---,0.04,19.00,VWS V14.01,2013-09-14 00:19:00,
2013-09-13 19:24:00,70.9,50.8,29.97,East,88,7.0,12.0,49,0.00,,---,0.04,11.00,VWS V14.01,2013-09-14 00:24:00,
2013-09-13 19:29:00,70.8,50.7,29.97,East,89,6.0,12.0,49,0.00,,---,0.04,5.00,VWS V14.01,2013-09-14 00:29:00,
2013-09-13 19:30:00,70.8,50.7,29.97,East,80,4.0,12.0,49,0.00,,---,0.04,5.00,VWS V14.01,2013-09-14 00:30:00,
2013-09-13 19:34:00,70.8,51.3,29.97,ENE,69,4.0,7.0,50,0.00,,---,0.04,0.00,VWS V14.01,2013-09-14 00:34:00,
2013-09-13 19:39:00,70.6,51.1,29.97,East,82,5.0,7.0,50,0.00,,---,0.04,0.00,VWS V14.01,2013-09-14 00:39:00,
2013-09-13 19:44:00,70.6,51.1,29.97,East,96,4.0,7.0,50,0.00,,---,0.04,0.00,VWS V14.01,2013-09-14 00:44:00,
2013-09-13 19:49:00,70.4,50.9,29.98,ENE,78,0.0,7.0,50,0.00,,---,0.04,0.00,VWS V14.01,2013-09-14 00:49:00,
2013-09-13 19:54:00,70.4,50.9,29.97,ENE,78,2.0,7.0,50,0.00,,---,0.04,0.00,VWS V14.01,2013-09-14 00:54:00,
2013-09-13 19:59:00,70.3,50.8,29.97,ENE,78,3.0,7.0,50,0.00,,---,0.04,0.00,VWS V14.01,2013-09-14 00:59:00,
2013-09-13 20:00:00,70.3,50.8,29.97,East,85,3.0,7.0,50,0.00,,---,0.04,0.00,VWS V14.01,2013-09-14 01:00:00,
2013-09-13 20:04:00,70.3,51.3,29.98,ENE,76,2.0,4.0,51,0.00,,---,0.04,0.00,VWS V14.01,2013-09-14 01:04:00,
2013-09-13 20:09:00,70.1,51.2,29.98,ENE,76,1.0,4.0,51,0.00,,---,0.04,0.00,VWS V14.01,2013-09-14 01:09:00,
2013-09-13 20:14:00,70.1,51.7,29.98,ENE,76,3.0,4.0,52,0.00,,---,0.04,0.00,VWS V14.01,2013-09-14 01:14:00,
2013-09-13 20:19:00,69.9,51.5,29.98,East,92,4.0,5.0,52,0.01,,---,0.05,0.00,VWS V14.01,2013-09-14 01:19:00,
2013-09-13 20:24:00,69.8,51.4,29.98,East,92,2.0,5.0,52,0.01,,---,0.05,0.00,VWS V14.01,2013-09-14 01:24:00,
2013-09-13 20:29:00,69.8,51.4,29.98,East,92,1.0,5.0,52,0.01,,---,0.05,0.00,VWS V14.01,2013-09-14 01:29:00,
2013-09-13 20:30:00,69.8,51.4,29.98,East,92,2.0,5.0,52,0.01,,---,0.05,0.00,VWS V14.01,2013-09-14 01:30:00,
2013-09-13 20:34:00,69.8,51.4,29.99,East,92,2.0,4.0,52,0.01,,---,0.05,0.00,VWS V14.01,2013-09-14 01:34:00,
2013-09-13 20:39:00,69.8,51.9,29.99,East,92,4.0,4.0,53,0.01,,---,0.05,0.00,VWS V14.01,2013-09-14 01:39:00,
2013-09-13 20:44:00,69.8,51.9,29.99,East,84,3.0,5.0,53,0.01,,---,0.05,0.00,VWS V14.01,2013-09-14 01:44:00,
2013-09-13 20:49:00,69.6,51.7,29.99,East,84,2.0,5.0,53,0.01,,---,0.05,0.00,VWS V14.01,2013-09-14 01:49:00,
2013-09-13 20:54:00,69.4,51.5,29.99,East,84,3.0,5.0,53,0.01,,---,0.05,0.00,VWS V14.01,2013-09-14 01:54:00,
2013-09-13 20:59:00,69.4,52.0,30.00,East,84,2.0,5.0,54,0.01,,---,0.05,0.00,VWS V14.01,2013-09-14 01:59:00,
2013-09-13 21:00:00,69.4,52.0,30.00,East,90,5.0,5.0,54,0.01,,---,0.05,0.00,VWS V14.01,2013-09-14 02:00:00,
2013-09-13 21:04:00,69.3,52.5,29.99,ENE,72,5.0,5.0,55,0.01,,---,0.05,0.00,VWS V14.01,2013-09-14 02:04:00,
2013-09-13 21:09:00,69.1,52.3,29.99,ENE,76,6.0,6.0,55,0.01,,---,0.05,0.00,VWS V14.01,2013-09-14 02:09:00,
2013-09-13 21:14:00,68.9,52.6,29.99,ENE,65,5.0,6.0,56,0.01,,---,0.05,0.00,VWS V14.01,2013-09-14 02:14:00,
2013-09-13 21:19:00,68.8,52.5,29.99,ENE,71,5.0,8.0,56,0.01,,---,0.05,0.00,VWS V14.01,2013-09-14 02:19:00,
2013-09-13 21:24:00,68.6,52.8,29.99,ENE,78,3.0,8.0,57,0.01,,---,0.05,0.00,VWS V14.01,2013-09-14 02:24:00,
2013-09-13 21:29:00,68.4,53.1,29.99,ENE,77,6.0,8.0,58,0.01,,---,0.05,0.00,VWS V14.01,2013-09-14 02:29:00,
2013-09-13 21:30:00,68.3,53.0,29.99,East,90,8.0,8.0,58,0.01,,---,0.05,0.00,VWS V14.01,2013-09-14 02:30:00,
2013-09-13 21:34:00,68.3,53.0,29.99,East,90,6.0,8.0,58,0.00,,---,0.05,0.00,VWS V14.01,2013-09-14 02:34:00,
2013-09-13 21:39:00,68.1,52.8,29.99,ESE,113,7.0,11.0,58,0.00,,---,0.05,0.00,VWS V14.01,2013-09-14 02:39:00,
2013-09-13 21:44:00,67.9,52.6,29.99,East,86,7.0,11.0,58,0.00,,---,0.05,0.00,VWS V14.01,2013-09-14 02:44:00,
2013-09-13 21:49:00,67.8,52.5,29.99,East,91,6.0,11.0,58,0.00,,---,0.05,0.00,VWS V14.01,2013-09-14 02:49:00,
2013-09-13 21:54:00,67.8,52.5,29.99,East,101,5.0,11.0,58,0.00,,---,0.05,0.00,VWS V14.01,2013-09-14 02:54:00,
2013-09-13 21:59:00,67.8,52.5,29.99,ESE,118,4.0,13.0,58,0.00,,---,0.05,0.00,VWS V14.01,2013-09-14 02:59:00,
2013-09-13 22:00:00,67.8,52.5,29.99,ESE,115,5.0,13.0,58,0.00,,---,0.05,0.00,VWS V14.01,2013-09-14 03:00:00,
2013-09-13 22:04:00,67.6,51.8,29.99,East,82,7.0,11.0,57,0.00,,---,0.05,0.00,VWS V14.01,2013-09-14 03:04:00,
2013-09-13 22:09:00,67.6,51.8,29.99,East,81,6.0,11.0,57,0.00,,---,0.05,0.00,VWS V14.01,2013-09-14 03:09:00,
2013-09-13 22:14:00,67.6,51.4,29.99,ESE,105,8.0,13.0,56,0.00,,---,0.05,0.00,VWS V14.01,2013-09-14 03:14:00,
2013-09-13 22:19:00,67.6,51.4,29.99,ESE,112,8.0,13.0,56,0.00,,---,0.05,0.00,VWS V14.01,2013-09-14 03:19:00,
2013-09-13 22:24:00,67.6,51.4,29.99,ESE,114,7.0,13.0,56,0.00,,---,0.05,0.00,VWS V14.01,2013-09-14 03:24:00,
2013-09-13 22:29:00,67.4,51.2,29.99,East,100,8.0,13.0,56,0.00,,---,0.05,0.00,VWS V14.01,2013-09-14 03:29:00,
2013-09-13 22:30:00,67.4,51.2,29.99,ESE,117,5.0,13.0,56,0.00,,---,0.05,0.00,VWS V14.01,2013-09-14 03:30:00,
2013-09-13 22:34:00,67.4,51.2,29.99,ESE,118,8.0,12.0,56,0.00,,---,0.05,0.00,VWS V14.01,2013-09-14 03:34:00,
2013-09-13 22:39:00,67.3,51.1,29.99,ESE,122,8.0,14.0,56,0.00,,---,0.05,0.00,VWS V14.01,2013-09-14 03:39:00,
2013-09-13 22:44:00,67.1,51.8,29.99,ESE,113,8.0,14.0,58,0.00,,---,0.05,0.00,VWS V14.01,2013-09-14 03:44:00,
2013-09-13 22:49:00,66.9,51.7,29.99,SE,136,8.0,14.0,58,0.00,,---,0.05,0.00,VWS V14.01,2013-09-14 03:49:00,
2013-09-13 22:54:00,66.8,51.6,30.00,ESE,106,5.0,14.0,58,0.00,,---,0.05,0.00,VWS V14.01,2013-09-14 03:54:00,
2013-09-13 22:59:00,66.6,51.4,30.00,East,100,7.0,14.0,58,0.00,,---,0.05,0.00,VWS V14.01,2013-09-14 03:59:00,
2013-09-13 23:00:00,66.6,51.4,30.00,ESE,106,6.0,14.0,58,0.00,,---,0.05,0.00,VWS V14.01,2013-09-14 04:00:00,
2013-09-13 23:01:00,66.6,51.4,29.99,ESE,117,6.0,7.0,58,0.00,,---,0.05,0.00,VWS V14.01,2013-09-14 04:01:00,
2013-09-13 23:02:00,66.6,51.8,29.99,ESE,116,7.0,7.0,59,0.00,,---,0.05,0.00,VWS V14.01,2013-09-14 04:02:00,
2013-09-13 23:07:00,66.6,51.4,29.99,ESE,108,5.0,9.0,58,0.00,,---,0.05,0.00,VWS V14.01,2013-09-14 04:07:00,
2013-09-13 23:12:00,66.4,51.7,29.99,ESE,104,6.0,11.0,59,0.00,,---,0.05,0.00,VWS V14.01,2013-09-14 04:12:00,
2013-09-13 23:17:00,66.4,51.2,29.99,ESE,120,7.0,11.0,58,0.00,,---,0.05,0.00,VWS V14.01,2013-09-14 04:17:00,
2013-09-13 23:22:00,66.4,51.2,29.99,ESE,113,5.0,11.0,58,0.00,,---,0.05,0.00,VWS V14.01,2013-09-14 04:22:00,
2013-09-13 23:27:00,66.4,51.2,30.00,East,98,6.0,11.0,58,0.00,,---,0.05,0.00,VWS V14.01,2013-09-14 04:27:00,
2013-09-13 23:30:00,66.4,51.2,30.00,ESE,121,5.0,11.0,58,0.00,,---,0.05,0.00,VWS V14.01,2013-09-14 04:30:00,
2013-09-13 23:32:00,66.4,51.2,29.99,ESE,107,4.0,8.0,58,0.00,,---,0.05,0.00,VWS V14.01,2013-09-14 04:32:00,
2013-09-13 23:37:00,66.3,51.1,29.99,ESE,119,6.0,9.0,58,0.00,,---,0.05,0.00,VWS V14.01,2013-09-14 04:37:00,
2013-09-13 23:42:00,66.3,50.6,29.99,SE,132,7.0,9.0,57,0.00,,---,0.05,0.00,VWS V14.01,2013-09-14 04:42:00,
2013-09-13 23:47:00,66.3,50.6,29.99,ESE,118,5.0,11.0,57,0.00,,---,0.05,0.00,VWS V14.01,2013-09-14 04:47:00,
2013-09-13 23:52:00,66.3,50.6,29.99,SE,146,6.0,11.0,57,0.00,,---,0.05,0.00,VWS V14.01,2013-09-14 04:52:00,
2013-09-13 23:57:00,66.1,50.4,29.99,ESE,117,7.0,11.0,57,0.00,,---,0.05,0.00,VWS V14.01,2013-09-14 04:57:00,